Regional Weather Roundup
Issued by NWS

Home | Current Version | Previous Version | Graphics & Text | Print | Product List | Glossary On
Versions: 1 2 3 4 5 6 7 8 9 10 11 12 13 14 15 16 17 18 19 20 21 22 23 24 25 26 27 28 29 30 31 32 33 34 35 36 37 38 39 40 41 42 43 44 45 46 47 48 49 50
000
ASUS43 KMKX 200710
RWRWI

WISCONSIN REGIONAL WEATHER ROUNDUP
NATIONAL WEATHER SERVICE MILWAUKEE/SULLIVAN WI
100 AM CST SAT JAN 20 2018

NOTE: "FAIR" INDICATES FEW OR NO CLOUDS BELOW 12,000 FEET WITH NO
SIGNIFICANT WEATHER AND/OR OBSTRUCTIONS TO VISIBILITY.

WIZ001-002-006>008-014>016-023>028-200800-
NORTHWEST WISCONSIN

CITY           SKY/WX    TMP DP  RH WIND       PRES   REMARKS
SUPERIOR ARPT  FAIR      36  30  80 NW14      29.66S WCI  27
ASHLAND        FAIR      34  27  75 SW8       29.65R WCI  27
HAYWARD        FAIR      21  18  88 CALM      29.68R FOG
SIREN          FAIR      29  26  86 W3        29.71R
CUMBERLAND     FAIR      28  27  93 W7        29.69R WCI  21
RICE LAKE      FAIR      25  24  97 CALM      29.71R FOG
CHETEK         FAIR      23  22  96 CALM      29.70R
LADYSMITH      FAIR      22  21  96 CALM      29.69R FOG
EAU CLAIRE     FAIR      31  28  89 SW3       29.70R
MENOMONIE      FAIR      28  27  95 SW5       29.71R WCI  23
NEW RICHMOND   FAIR      29  28  97 CALM      29.72R
OSCEOLA        FAIR      22  22 100 CALM      29.76R FOG
$$

WIZ003>005-009-010-017-018-200800-
NORTH CENTRAL WISCONSIN

CITY           SKY/WX    TMP DP  RH WIND       PRES   REMARKS
MANITOWISH WTR FAIR      29  27  92 W6        29.61R WCI  22
ARBOR VITAE    FAIR      34  28  81 NW6       29.61R WCI  28
WOODRUFF       FAIR      34  28  81 NW6       29.61R WCI  28
RHINELANDER    FAIR      28  24  85 W7        29.62R WCI  21
EAGLE RIVER    FAIR      27  22  82 W5        29.59R WCI  22
LAND O LAKES   FAIR      31  26  83 CALM      29.61R
PHILLIPS       FAIR      27  26  95 SW3       29.64R
TOMAHAWK       FAIR      31  26  81 W3        29.64R
MEDFORD        FAIR      30  27  88 SW3       29.65R
MERRILL        FAIR      31  28  87 SW6       29.64R WCI  25
$$

WIZ029-030-035-036-043>047-200800-
CENTRAL WISCONSIN

CITY           SKY/WX    TMP DP  RH WIND       PRES   REMARKS
WAUSAU         FAIR      34  28  79 W6        29.64R WCI  29
MOSINEE        FAIR      32  30  93 W7        29.66R WCI  26
MARSHFIELD     FAIR      32  28  85 W5        29.65R WCI  27
STEVENS POINT  FAIR      32  28  83 W3        29.68R
WAUPACA        FAIR      37  29  73 W6        29.67R WCI  32
WAUTOMA        FAIR      31  26  82 W3        29.69R
WISC RAPIDS    FAIR      33  26  75 SW5       29.69R WCI  29
CAMP DOUGLAS   FAIR      28  27  94 CALM      29.69R
$$

WIZ011>013-019>022-031-037>040-048>050-200800-
NORTHEAST WISCONSIN

CITY           SKY/WX    TMP DP  RH WIND       PRES   REMARKS
ANTIGO         FAIR      31  27  84 W7        29.63R WCI  24
SHAWANO        FAIR      37  29  71 SW5       29.64R WCI  34
OCONTO         FAIR      37  28  72 W6        29.62R WCI  32
STURGEON BAY   FAIR      37  28  70 W15       29.62R WCI  28
GREEN BAY      FAIR      35  27  72 SW6       29.65R WCI  30
MANITOWOC      FAIR      38  28  67 W12G22    29.66R WCI  30
APPLETON       FAIR      32  25  74 SW10      29.65R WCI  24
CLINTONVILLE   FAIR      36  28  75 W6        29.65R WCI  31
OSHKOSH        FAIR      36  27  69 W6        29.67R WCI  31
$$

WIZ032>034-041-042-053>061-200800-
SOUTHWEST WISCONSIN

CITY           SKY/WX    TMP DP  RH WIND       PRES   REMARKS
LA CROSSE      FAIR      29  26  89 S6        29.72R WCI  23
SPARTA         FAIR      27  26  96 CALM      29.73R
VIROQUA        FAIR      33  31  94 W7        29.70R WCI  26
BOSCOBEL       FAIR      34  27  75 SW3       29.74R
PRAIRIE DU CHI FAIR      35  28  73 CALM      29.74R
PLATTEVILLE    FAIR      33  29  85 SW6       29.74S WCI  28
$$

WIZ056-057-062-063-064-067-068-200800-
SOUTH CENTRAL WISCONSIN

CITY           SKY/WX    TMP DP  RH WIND       PRES   REMARKS
REEDSBURG      FAIR      35  28  75 SW6       29.71R WCI  30
BARABOO/DELLS  FAIR      34  27  74 SW6       29.70R WCI  29
LONE ROCK      FAIR      28  25  88 CALM      29.73R
MINERAL POINT  FAIR      36  32  87 W6        29.72S WCI  31
MADISON        FAIR      36  27  69 MISG      29.72S
MIDDLETON      FAIR      37  29  73 W8        29.71S WCI  31
WATERTOWN      FAIR      35  30  82 SW7       29.71R WCI  29
MONROE         FAIR      34  28  80 SW16      29.73R WCI  23
JANESVILLE     FAIR      37  30  75 SW7       29.75R WCI  32
$$

WIZ051-052-058>065-066-070>072-200800-
SOUTHEAST WISCONSIN

CITY           SKY/WX    TMP DP  RH WIND       PRES   REMARKS
MILWAUKEE      FAIR      41  29  62 W14G24    29.71S
WAUKESHA       FAIR      36  28  75 SW13      29.72S WCI  27
MILWAUKEE/TIMM FAIR      37  27  65 SW14      29.72R WCI  29
RACINE         FAIR      40  28  62 SW13G20   29.74R WCI  32
BURLINGTON     FAIR      39  28  63 SW15G21   29.73S WCI  31
KENOSHA        FAIR      40  28  62 SW16G25   29.74R WCI  31
FOND DU LAC    FAIR      35  26  69 SW5       29.69R WCI  31
SHEBOYGAN      FAIR      37  29  72 W14       29.67R WCI  28
WEST BEND      FAIR      36  28  75 W12       29.70R WCI  27
JUNEAU         FAIR      32  26  80 SW7       29.71R WCI  26
$$

LSZ147-162-200800-
LAKE SUPERIOR

STATION/POSITION TIME  TEMP    WIND        PRES    WAVE
                       AIR SEA DIR/SP/G            HT/PER
                 (UTC) (F)     (DEG/KT/KT) (MB)    (FT/S)
DEVILS ISLAND    0700   37     260/ 18/ 21 1003.3R
SAXON HARBOR     0640   38     200/  4/  8 1003.4R
$$

LMZ867-665-643>646-200800-
LAKE MICHIGAN

STATION/POSITION TIME  TEMP    WIND        PRES    WAVE
                       AIR SEA DIR/SP/G            HT/PER
                 (UTC) (F)     (DEG/KT/KT) (MB)    (FT/S)
NORTHPORT PIER   0640   38     260/  4/ 20 1001.7R
KEWAUNEE LAKESHO 0642          280/ 11/ 17 1002.6R
SHEBOYGAN LAKESH 0700   40     250/ 10/ 12 1005.2R
PORT WASHINGTON  0640   39     250/  8/ 12 1006.4F
MILWAUKEE LAKESH 0650   41     250/  9/ 12   N/A
KENOSHA   LAKESH 0700   41     240/  9/ 17 1007.5
$$

TC  - TEMPERATURE IN CELSIUS
VSB - VISIBILITY IN STATUTE MILES
WCI - WIND CHILL INDEX
HX  - HEAT INDEX





USA.gov is the U.S. government's official web portal to all federal, state and local government web resources and services.